"Pseudo-MPEC" for C1FT295

Created 2026 Aug 26 0:35:04 UT using Find_Orb

Click here for an explanation of pseudo-MPECs

 
 Astrometry: 
     C1FT295*1C2026 08 22.36299522 43 05.394-12 40 13.94   ~8OFo 22.51GVNEOCPV00
     C1FT295 1C2026 08 22.36797622 43 04.404-12 39 58.82   ~8OFo 22.35GVNEOCPV00
     C1FT295 1C2026 08 22.37294022 43 03.389-12 39 43.31   ~8OFo 23.39GVNEOCPV00
     C1FT295 1C2026 08 22.37790322 43 02.420-12 39 27.97   ~8OFo 23.32GVNEOCPV00

Station data:
(V00) Kitt Peak-Bok  (N31.963125 W111.600190)  US/Arizona. Measurers T.
   Beuden, V. F. Carvajal, D. Fay, J. B. Fazekas, D. C. Fuls, A. R. Gibbs, A.
   D. Grauer, H. Gröller, J. K. Hogan, R. A. Kowalski, S. M. Larson, G. J.
   Leonard, D. Rankin, R. L. Seaman, F. C. Shelly, K. W. Wierzchoś. 2.25-m
   reflector + 4x4K mosaic CCD.

Orbital elements:  C1FT295
   Perihelion 2026 Nov 13.878208 +/- 58.7 TT = 21:04:37.1 (JD 2461358.378208)
Epoch 2026 Aug 22.0 TT = JDT 2461274.5   Earth MOID: 0.1748   Ma: 0.0488
M 319.632146836 +/- 28              (J2000 ecliptic)             AutoNEOCP
n   0.481267472 +/- 0.324           Peri.   82.685286 +/- 60
a   1.612668275 +/- 0.723           Node   333.066606 +/- 29
e   0.41631033 +/- 0.274            Incl.   21.634376 +/- 15
P   2.048/748.011d         H 24.85  G  0.15   U 12.0  SR
q 0.941297809 +/- 0.345    Q 2.284038742 +/- 35.6
From 4 observations 2026 Aug. 22 (21.5 min); mean residual 0".12
Residuals in arcseconds: 
260822 V00  .01+  .09+    260822 V00  .23-  .03+    
260822 V00  .10+  .16-    260822 V00  .12+  .03+    

Ephemerides (geocentric):
Date (UTC) HH   RA             Dec           delta  r     elong  mag " sig PA
---- --------  ------------   ------------  ------ ------ -----  --- --------
2026 08 26 01  22 30 26.235   -09 11 23.69  .25494 1.2652 176.6 22.7  36d  81
2026 08 26 02  22 30 16.867   -09 08 47.91  .25468 1.2650 176.6 22.7  36d  81
2026 08 26 03  22 30 07.482   -09 06 11.79  .25442 1.2647 176.7 22.7  36d  81
2026 08 26 04  22 29 58.079   -09 03 35.35  .25416 1.2644 176.7 22.7  36d  81
2026 08 26 05  22 29 48.658   -09 00 58.58  .25390 1.2642 176.8 22.7  36d  81
2026 08 26 06  22 29 39.220   -08 58 21.48  .25364 1.2639 176.9 22.7  37d  82
2026 08 26 07  22 29 29.765   -08 55 44.05  .25339 1.2637 176.9 22.7  37d  82
2026 08 26 08  22 29 20.292   -08 53 06.30  .25313 1.2634 177.0 22.6  37d  82
2026 08 26 09  22 29 10.801   -08 50 28.21  .25287 1.2632 177.0 22.6  37d  82
2026 08 26 10  22 29 01.293   -08 47 49.79  .25262 1.2629 177.0 22.6  37d  81
2026 08 26 11  22 28 51.768   -08 45 11.04  .25236 1.2626 177.1 22.6  37d  81
2026 08 26 12  22 28 42.225   -08 42 31.96  .25211 1.2624 177.1 22.6  37d  81
2026 08 26 13  22 28 32.664   -08 39 52.55  .25185 1.2621 177.2 22.6  37d  81
2026 08 26 14  22 28 23.086   -08 37 12.81  .25160 1.2619 177.2 22.6  38d  80
2026 08 26 15  22 28 13.491   -08 34 32.74  .25135 1.2616 177.3 22.6  38d  80
2026 08 26 16  22 28 03.878   -08 31 52.34  .25109 1.2614 177.3 22.6  38d  80
2026 08 26 17  22 27 54.247   -08 29 11.60  .25084 1.2611 177.3 22.6  39d  80
2026 08 26 18  22 27 44.599   -08 26 30.53  .25059 1.2609 177.4 22.6  39d  80
2026 08 26 19  22 27 34.933   -08 23 49.13  .25034 1.2606 177.4 22.6  39d  80
2026 08 26 20  22 27 25.250   -08 21 07.40  .25009 1.2603 177.4 22.6  39d  80
2026 08 26 21  22 27 15.549   -08 18 25.33  .24983 1.2601 177.4 22.6  40d  80
2026 08 26 22  22 27 05.830   -08 15 42.93  .24958 1.2598 177.5 22.6  40d  80
2026 08 26 23  22 26 56.094   -08 13 00.20  .24933 1.2596 177.5 22.6  40d  80
2026 08 27 00  22 26 46.340   -08 10 17.13  .24908 1.2593 177.5 22.6  40d  80
2026 08 27 01  22 26 36.569   -08 07 33.72  .24884 1.2591 177.5 22.6  40d  80
2026 08 27 02  22 26 26.780   -08 04 49.99  .24859 1.2588 177.5 22.6  40d  80
2026 08 27 03  22 26 16.973   -08 02 05.92  .24834 1.2586 177.5 22.6  40d  80
2026 08 27 04  22 26 07.149   -07 59 21.51  .24809 1.2583 177.6 22.6  41d  80
2026 08 27 05  22 25 57.307   -07 56 36.77  .24784 1.2580 177.6 22.6  41d  80
2026 08 27 06  22 25 47.448   -07 53 51.69  .24760 1.2578 177.6 22.6  41d  80
2026 08 27 07  22 25 37.571   -07 51 06.27  .24735 1.2575 177.6 22.6  41d  80
2026 08 27 08  22 25 27.676   -07 48 20.52  .24710 1.2573 177.5 22.5  41d  80
2026 08 27 09  22 25 17.764   -07 45 34.44  .24686 1.2570 177.5 22.5  42d  80
2026 08 27 10  22 25 07.834   -07 42 48.02  .24661 1.2568 177.5 22.5  42d  80
2026 08 27 11  22 24 57.886   -07 40 01.26  .24637 1.2565 177.5 22.5  42d  80
2026 08 27 12  22 24 47.920   -07 37 14.16  .24613 1.2563 177.5 22.5  42d  81
2026 08 27 13  22 24 37.937   -07 34 26.73  .24588 1.2560 177.5 22.5  42d  81
2026 08 27 14  22 24 27.937   -07 31 38.96  .24564 1.2557 177.5 22.5  42d  81
2026 08 27 15  22 24 17.918   -07 28 50.85  .24540 1.2555 177.4 22.5  42d  81
2026 08 27 16  22 24 07.882   -07 26 02.41  .24515 1.2552 177.4 22.5  42d  81
2026 08 27 17  22 23 57.828   -07 23 13.62  .24491 1.2550 177.4 22.5  43d  81
2026 08 27 18  22 23 47.757   -07 20 24.50  .24467 1.2547 177.3 22.5  43d  81
2026 08 27 19  22 23 37.668   -07 17 35.04  .24443 1.2545 177.3 22.5  43d  81
2026 08 27 20  22 23 27.561   -07 14 45.24  .24419 1.2542 177.3 22.5  43d  81
2026 08 27 21  22 23 17.436   -07 11 55.11  .24395 1.2540 177.2 22.5  43d  81
2026 08 27 22  22 23 07.294   -07 09 04.63  .24371 1.2537 177.2 22.5  43d  81
2026 08 27 23  22 22 57.134   -07 06 13.82  .24347 1.2534 177.1 22.5  43d  81
2026 08 28 00  22 22 46.956   -07 03 22.67  .24323 1.2532 177.1 22.5  43d  81